Regional Weather Roundup
Issued by NWS Wakefield, VA

Home | Current Version | Previous Version | Text Only | Print | Product List | Glossary On
Versions: 1 2 3 4 5 6 7 8 9 10 11 12 13 14 15 16 17 18 19 20 21 22 23 24 25 26 27 28 29
000
ASUS41 KAKQ 221615
RWRAKQ

REGIONAL WEATHER ROUNDUP
NATIONAL WEATHER SERVICE WAKEFIELD VA
1100 AM EST WED FEB 22 2017

Note: "fair" indicates few or no clouds below 12,000 feet with no
significant weather and/or obstructions to visibility. * = Denotes
station may not report precipitation (e.g., rain,snow,etc.),
thunder or fog.

VAZ042-051-052>054-056-221700-
NORTHERN VIRGINIA

CITY           SKY/WX    TMP DP  RH WIND       PRES   REMARKS
WASH NATIONAL  CLOUDY    52  45  77 S6        30.01F
DULLES         CLOUDY    53  41  63 VRB3      30.00F
FORT BELVOIR   MOSUNNY   53  43  70 CALM      30.00F
QUANTICO       CLOUDY    50  47  89 S5        30.02F
FREDERICKSBRG* CLOUDY    53  49  89 CALM      30.00F
STAFFORD*      CLOUDY    51  49  93 CALM      30.05F
WARRENTON      CLOUDY    55  43  63 CALM      29.99F
CULPEPER*      CLOUDY    53  47  78 CALM      30.01F
MANASSAS*      CLOUDY    53  43  68 S3        30.00F
LEESBURG*      CLOUDY    54  45  71 CALM      30.00F
WINCHESTER     CLOUDY    55  43  62 SW7       29.98F
FRONT ROYAL*   CLOUDY    59  45  58 SW8       29.97F
LURAY*         CLOUDY    57  48  72 S6        29.99F
$$

VAZ048-049-060>072-079>083-221700-
CENTRAL AND SOUTH CENTRAL VIRGINIA

CITY           SKY/WX    TMP DP  RH WIND       PRES   REMARKS
RICHMOND       CLOUDY    56  48  74 W6        30.03F
CHESTERFIELD*  CLOUDY    54  36  50 W5        30.06F
PETERSBURG*    LGT RAIN  51  48  89 CALM      30.06S
HANOVER        CLOUDY    55  45  68 SW6       30.04F
TAPPAHANNOCK*  CLOUDY    55  43  64 S5        30.03F
QUINTON*       CLOUDY    56  50  78 MISG      30.04F
CHARLOTTSVILLE CLOUDY    53  49  86 W3        30.00F
GORDONSVILLE*  CLOUDY    52  48  86 SW7       30.00S
ORANGE*        CLOUDY    54  48  82 CALM      30.01F
LOUISA*        DRIZZLE   55  52  88 SW3       29.99F
BUMPASS*       CLOUDY    53  47  79 SW8       30.00F
FARMVILLE*     RAIN      49  49 100 CALM      30.03F
CREWE*         CLOUDY    48  48 100 CALM      30.04F
FORT PICKETT*  CLOUDY    51  48  88 N3        30.04F
CHASE CITY*    CLOUDY    53  51  94 W6        30.04S
CLARKSVILLE*   CLOUDY    52  52 100 CALM      30.03F
SOUTH HILL*    CLOUDY    55  50  85 CALM      30.09S
LAWRENCEVILLE* CLOUDY    55  49  80 CALM      30.03F
EMPORIA*       CLOUDY    55  46  71 CALM      30.05F
$$

VAZ088>098-221700-
SOUTHEAST VIRGINIA

CITY           SKY/WX    TMP DP  RH WIND       PRES   REMARKS
NORFOLK        CLOUDY    66  50  56 S9        30.03F
VIRGINIA BEACH PTSUNNY   64  50  60 S7        30.03F
NORFOLK NAVAL  PTSUNNY   65  49  56 S9        30.05F
WEST POINT*    CLOUDY    56  48  73 S5        30.06F
SALUDA*        CLOUDY    54  49  83 NW5       30.04S
NEWPORT NEWS   PTSUNNY   61  50  67 SW9       30.04S
LANGLEY AFB    PTSUNNY   63  50  63 S9        30.03F
FORT EUSTIS    PTSUNNY   62  50  66 SW3       30.02S
WILLIAMSBURG*  MOSUNNY   63  52  67 W3        30.05F
HR EXEC AP*    PTSUNNY   64  50  59 SW7       30.02F
FRANKLIN*      CLOUDY    63  50  63 S5        30.04F
US460-WAKEFLD  CLOUDY    59  50  72 SW5       30.04F
$$

VAZ020-022-025-037-045-221700-
WEST CENTRAL AND SOUTHWEST VIRGINIA

CITY           SKY/WX    TMP DP  RH WIND       PRES   REMARKS
STAUNTON*      CLOUDY    52  47  83 CALM      30.02F
WAYNESBORO*    CLOUDY    52  48  87 SW5       30.00F
HOT SPRINGS VA CLOUDY    50  46  87 S5        30.02F
LYNCHBURG      LGT RAIN  48  46  93 CALM      30.05F
DANVILLE       CLOUDY    51  49  92 CALM      30.04F
SOUTH BOSTON*  CLOUDY    51  50  95 CALM      30.04F
MARTINSVILLE   DRIZZLE   47  45  93 CALM      30.06F
ROANOKE        LGT RAIN  50  47  89 CALM      30.05F
BLACKSBURG     DRIZZLE   48  47  97 CALM      30.06S
DUBLIN*        RAIN      48  47  97 CALM      30.04F
MARION*        RAIN      48  47  95 E5        30.05S
HILLSVILLE*    RAIN      47  47 100 CALM      30.02F
RICHLANDS*     LGT RAIN  51  51 100 CALM      30.00S
WISE*          DRIZZLE   54  54 100 CALM      30.01R
ABINGDON*      RAIN      52  51  97 E8        30.00S
$$

MDZ021>025-VAZ099-100-221700-
SOUTHERN MARYLAND AND THE DELMARVA PENINSULA

CITY           SKY/WX    TMP DP  RH WIND       PRES   REMARKS
PATUXENT RIVER CLOUDY    52  48  86 VRB6      30.02F
BAY BRIDGE APT CLOUDY    52  45  76 S6        30.01F HAZE
LEONARDTOWN    CLOUDY    54  45  71 SW5       30.03F
DOVER          CLOUDY    51  51 100 S6        30.01F
GEORGETOWN     CLOUDY    56  48  74 CALM      30.04F
EASTON         CLOUDY    54  46  76 SW7       30.05F
CAMBRIDGE        N/A    N/A N/A N/A MISG        N/A
SALISBURY      CLOUDY    57  50  77 SW10      30.03F
OCEAN CITY     CLOUDY    52  47  83 S5        30.05F
WALLOPS ISLAND CLOUDY    56  51  84 S5        30.05F
ACCOMACK*      CLOUDY    60  51  72 SW3       30.04S
$$

NCZ012>017-030>032-221700-
NORTH CENTRAL AND EASTERN NORTH CAROLINA

CITY           SKY/WX    TMP DP  RH WIND       PRES   REMARKS
ROANOKE RAPIDS CLOUDY    59  50  72 CALM      30.03F
RALEIGH        CLOUDY    66  52  60 SW8       30.03S
ELIZABETH CITY PTSUNNY   66  50  56 S6        30.04F
AHOSKIE*         N/A     64  51  62 S6        30.03F
EDENTON*       PTSUNNY   67  53  59 S7        30.04F
CURRITUCK*     PTSUNNY   66  48  52 S7        30.05S
KILL DEVIL HLS NOT AVBL
MANTEO         PTSUNNY   66  48  53 S12       30.03F
CAPE HATTERAS  SUNNY     70  51  51 E6        30.04F
TARBORO*       NOT AVBL
GOLDSBORO      SUNNY     70  54  57 SE7       29.99F
WASHINGTON     MOSUNNY   67  52  59 S7        30.03F
GREENVILLE     MOSUNNY   70  52  52 S9        30.04F
NEW BERN       MOSUNNY   69  53  56 SE8       30.03F
WILMINGTON     MOSUNNY   70  57  63 SE10      30.01S
$$

VAZ048-221700-
ELSEWHERE

CITY           SKY/WX    TMP DP  RH WIND       PRES   REMARKS
HARRISBURG PA  CLOUDY    51  40  65 CALM      29.99F
BALTIMORE      CLOUDY    54  42  64 CALM      30.00F
ANNAPOLIS      MOSUNNY   47  43  86 SE9       30.01F
ANDREWS AFB    MOSUNNY   53  44  69 S3        29.99F
PHILADELPHIA   PTSUNNY   49  40  71 W3        30.03F
HENDERSON NC   DRIZZLE   54  47  77 CALM      30.03F
GREENSBORO     CLOUDY    55  53  93 N6        30.03S
ROCKY MOUNT    MOSUNNY   67  53  61 VRB6      30.02F
$$

VAZ100-221700-
MARINE

STATION/POSITION TIME  TEMP    WIND        PRES    WAVE   SWELL
                       AIR SEA DIR/SP/G            HT/PER HT/PER
                 (UTC) (F)     (DEG/KT/KT) (MB)    (FT/S) (FT/S)
CAPE MAY NJ      1548   47 42  240/  4/  6 1017.0F
LEWES DE         1548   46 42   80/  5/  5 1017.2F
OCEAN-CITY-INLET 1548   47 43  190/  3/  4 1017.8F
WACHAPREAGUE VA  1548   54 50  220/  4/  5 1017.3F
THOMAS POINT MD  1600   45 42  180/  4/  4   N/A
GOOSES REEF MD   1550   45     170/  8/ 10 1017.0F
COVE POINT MD    1548   44     180/ 10/ 11 1017.1F
SOLOMONS ISLAND  1548   45 43   90/  6/  8   N/A
BISHOPS HEAD MD  1548   45 45  140/  4/  5 1017.5F
PINEY POINT MD   1548          130/  5/  5   N/A
POTOMAC MD       1550   45     130/  4/  4 1016.1F
CAMBRIDGE MD     1548   52 42  120/  3/  6 1016.0F
LEWISETTA VA     1548   55 44  240/  6/  8 1016.6F
RAPPAHANNOCK LGT 1548          200/  6/  6 1017.8F
YORK RVR RNG VA  1548   52      CALM  /  1 1016.5F
YORKTOWN VA      1548   60 46  230/ 10/ 12 1016.7F
JAMESTOWN VA     1550   50     310/  6/  8   N/A
DOMINION TERM VA 1548   57        CALM     1017.2F
KIPTOPEKE VA     1548      46  170/  4/  5   N/A
CHES BAY BRIDGE  1548   58 47  200/  4/  5 1017.0F
CAPE HENRY VA    1548   63     180/  6/ 10   N/A
WILLOUBY STN VA  1548   54     310/  2/  3 1018.0F
S CRANEY ISL VA  1548   60     200/  4/  6 1016.9F
CAPE HENRY BUOY  1542      48                N/A     3/ 9
OFFSHORE WE BUOY 1551      48                N/A     3/ 8
64NM E OF VA BCH 1550   57 54  190/  4/  4 1017.6F   4/10   3/10
DUCK PIER NC     1548   56 48  140/  8/  9 1016.8F
44100 DUCK FRF   1505      48                N/A     3/ 9   2/11
44056 DUCK FRF   1530      49                N/A     3/ 9
OREGON INLET NC  1536   65 51  130/  4/  6 1017.5F
HATTERAS NC      1548   66 59  120/  6/  8 1017.0F
DIAMOND SHLS NC  1550   67 74  140/  8/ 12 1017.4F   3/10   3/10
CAPE LOOKOUT NC  1500   63     120/  5/  6 1016.6F
$$




USA.gov is the U.S. government's official web portal to all federal, state and local government web resources and services.